| time (UTC) | temp F | wind direction | speed MPH | gust MPH | rain 1hr in | rain 24hr in | rain mn in | humidity % | barometer mb |
| 20260906221107 | 78 | 63 | 0.0 | 2.0 | 0.00 | 0.17 | 0.17 | 84 | 1012.6 |
| 20260906220608 | 78 | 53 | 0.0 | 1.0 | 0.00 | 0.17 | 0.17 | 86 | 1012.7 |
| 20260906215816 | 78 | 53 | 0.0 | 1.0 | 0.00 | 0.17 | 0.17 | 86 | 1012.9 |
| 20260906215811 | 78 | 53 | 1.0 | 2.0 | 0.00 | 0.17 | 0.17 | 86 | 1013.1 |
| 20260906215731 | 78 | 53 | 0.0 | 2.0 | 0.00 | 0.17 | 0.17 | 86 | 1012.8 |
| 20260906214103 | 78 | 53 | 1.0 | 2.0 | 0.01 | 0.17 | 0.17 | 85 | 1013.3 |
| 20260906213600 | 78 | 53 | 1.0 | 2.0 | 0.01 | 0.17 | 0.17 | 85 | 1013.2 |
| 20260906213101 | 78 | 75 | 0.0 | 1.0 | 0.01 | 0.17 | 0.17 | 85 | 1013.3 |
| 20260906212900 | 78 | 74 | 0.0 | 1.0 | 0.01 | 0.17 | 0.17 | 85 | 1013.4 |
| 20260906212415 | 78 | 75 | 0.0 | 0.0 | 0.01 | 0.17 | 0.17 | 83 | 1013.4 |
| 20260906211606 | 78 | 75 | 0.0 | 1.0 | 0.01 | 0.17 | 0.17 | 83 | 1013.5 |
| 20260906211103 | 78 | 74 | 0.0 | 1.0 | 0.01 | 0.17 | 0.17 | 83 | 1013.8 |
| 20260906210604 | 78 | 75 | 0.0 | 1.0 | 0.01 | 0.17 | 0.17 | 83 | 1014.0 |
| 20260906210101 | 79 | 75 | 0.0 | 1.0 | 0.01 | 0.17 | 0.17 | 83 | 1013.9 |
| 20260906205601 | 79 | 75 | 0.0 | 1.0 | 0.01 | 0.17 | 0.17 | 82 | 1014.0 |
| 20260906205101 | 79 | 75 | 0.0 | 1.0 | 0.01 | 0.17 | 0.17 | 82 | 1014.2 |
| 20260906204910 | 79 | 75 | 0.0 | 1.0 | 0.01 | 0.17 | 0.17 | 81 | 1014.0 |
| 20260906204101 | 80 | 74 | 0.0 | 2.0 | 0.00 | 0.16 | 0.16 | 81 | 1014.3 |
| 20260906203601 | 80 | 74 | 0.0 | 2.0 | 0.00 | 0.16 | 0.16 | 79 | 1013.9 |
| 20260906203354 | 80 | 155 | 0.0 | 1.0 | 0.00 | 0.16 | 0.16 | 79 | 1013.8 |
| 20260906202601 | 80 | 155 | 0.0 | 2.0 | 0.00 | 0.16 | 0.16 | 78 | 1013.6 |
| 20260906202356 | 80 | 155 | 1.0 | 2.0 | 0.00 | 0.16 | 0.16 | 76 | 1013.6 |
| 20260906201603 | 81 | 155 | 1.0 | 2.0 | 0.00 | 0.16 | 0.16 | 75 | 1013.6 |
| 20260906201101 | 81 | 59 | 1.0 | 2.0 | 0.00 | 0.16 | 0.16 | 75 | 1013.4 |
| 20260906200602 | 81 | 44 | 1.0 | 3.0 | 0.00 | 0.16 | 0.16 | 74 | 1013.4 |
| 20260906195606 | 82 | 105 | 1.0 | 3.0 | 0.00 | 0.16 | 0.16 | 74 | 1013.6 |
| 20260906195101 | 82 | 46 | 1.0 | 3.0 | 0.00 | 0.16 | 0.16 | 73 | 1013.5 |
| 20260906194600 | 82 | 51 | 2.0 | 4.0 | 0.00 | 0.16 | 0.16 | 72 | 1013.6 |
| 20260906194102 | 82 | 81 | 2.0 | 4.0 | 0.00 | 0.16 | 0.16 | 72 | 1013.8 |
| 20260906193603 | 82 | 47 | 2.0 | 5.0 | 0.00 | 0.16 | 0.16 | 71 | 1013.9 |
| 20260906193100 | 82 | 73 | 2.0 | 5.0 | 0.00 | 0.16 | 0.16 | 71 | 1014.0 |
| 20260906192601 | 82 | 60 | 1.0 | 3.0 | 0.00 | 0.16 | 0.16 | 72 | 1013.8 |
| 20260906192101 | 82 | 73 | 1.0 | 3.0 | 0.00 | 0.16 | 0.16 | 72 | 1013.9 |
| 20260906191602 | 83 | 65 | 2.0 | 5.0 | 0.00 | 0.16 | 0.16 | 70 | 1013.9 |
| 20260906191101 | 82 | 79 | 2.0 | 5.0 | 0.00 | 0.16 | 0.16 | 71 | 1014.0 |
| 20260906190909 | 83 | 60 | 2.0 | 5.0 | 0.00 | 0.16 | 0.16 | 70 | 1014.3 |
| 20260906185600 | 83 | 49 | 2.0 | 6.0 | 0.00 | 0.16 | 0.16 | 70 | 1014.2 |
| 20260906185356 | 83 | 48 | 2.0 | 6.0 | 0.00 | 0.17 | 0.16 | 70 | 1014.0 |
| 20260906184908 | 83 | 49 | 2.0 | 5.0 | 0.00 | 0.17 | 0.16 | 72 | 1014.3 |
| 20260906184101 | 83 | 92 | 3.0 | 6.0 | 0.00 | 0.17 | 0.16 | 70 | 1014.3 |
| 20260906183605 | 83 | 54 | 2.0 | 6.0 | 0.00 | 0.17 | 0.16 | 67 | 1014.5 |
| 20260906183415 | 83 | 77 | 2.0 | 4.0 | 0.00 | 0.17 | 0.16 | 66 | 1014.6 |
| 20260906182906 | 83 | 27 | 2.0 | 4.0 | 0.00 | 0.17 | 0.16 | 68 | 1014.6 |
| 20260906182103 | 82 | 59 | 2.0 | 3.0 | 0.00 | 0.17 | 0.16 | 69 | 1014.7 |
| 20260906181601 | 81 | 32 | 2.0 | 5.0 | 0.00 | 0.17 | 0.16 | 71 | 1014.6 |
| 20260906181101 | 81 | 69 | 2.0 | 5.0 | 0.00 | 0.17 | 0.16 | 70 | 1014.7 |
| 20260906180601 | 81 | 46 | 2.0 | 5.0 | 0.00 | 0.17 | 0.16 | 70 | 1014.7 |
| 20260906180104 | 80 | 73 | 2.0 | 4.0 | 0.00 | 0.17 | 0.16 | 72 | 1014.8 |
| 20260906175855 | 79 | 44 | 2.0 | 4.0 | 0.00 | 0.17 | 0.16 | 74 | 1014.7 |
| 20260906175102 | 79 | 49 | 3.0 | 5.0 | 0.00 | 0.17 | 0.16 | 74 | 1014.8 |
| 20260906174601 | 78 | 53 | 3.0 | 5.0 | 0.00 | 0.17 | 0.16 | 75 | 1014.9 |
| 20260906174102 | 78 | 68 | 3.0 | 6.0 | 0.00 | 0.17 | 0.16 | 76 | 1014.9 |
| 20260906173559 | 78 | 78 | 2.0 | 6.0 | 0.00 | 0.17 | 0.16 | 75 | 1014.9 |
| 20260906173052 | 78 | 71 | 2.0 | 5.0 | 0.00 | 0.17 | 0.16 | 77 | 1015.0 |
| 20260906172546 | 78 | 84 | 2.0 | 6.0 | 0.00 | 0.17 | 0.16 | 79 | 1015.1 |
| 20260906172045 | 77 | 42 | 3.0 | 6.0 | 0.00 | 0.17 | 0.16 | 79 | 1015.2 |
| 20260906171545 | 76 | 125 | 2.0 | 6.0 | 0.00 | 0.17 | 0.16 | 84 | 1015.3 |
| 20260906171049 | 76 | 88 | 2.0 | 3.0 | 0.00 | 0.17 | 0.16 | 86 | 1015.3 |
| 20260906170900 | 75 | 59 | 2.0 | 5.0 | 0.00 | 0.17 | 0.16 | 86 | 1015.3 |
| 20260906170337 | 75 | 46 | 2.0 | 5.0 | 0.00 | 0.17 | 0.16 | 84 | 1015.3 |
| 20260906165542 | 75 | 61 | 1.0 | 3.0 | 0.00 | 0.17 | 0.16 | 85 | 1015.4 |
| 20260906165322 | 75 | 71 | 1.0 | 3.0 | 0.00 | 0.17 | 0.16 | 87 | 1015.5 |
| 20260906164542 | 75 | 25 | 1.0 | 3.0 | 0.00 | 0.17 | 0.16 | 86 | 1015.4 |
| 20260906164039 | 74 | 71 | 1.0 | 3.0 | 0.00 | 0.17 | 0.16 | 88 | 1015.5 |
| 20260906163540 | 74 | 120 | 1.0 | 3.0 | 0.01 | 0.17 | 0.16 | 89 | 1015.4 |
| 20260906163355 | 73 | 301 | 1.0 | 3.0 | 0.06 | 0.17 | 0.16 | 89 | 1015.4 |
| 20260906162537 | 74 | 134 | 1.0 | 3.0 | 0.16 | 0.17 | 0.16 | 90 | 1015.4 |
| 20260906162039 | 73 | 103 | 1.0 | 3.0 | 0.16 | 0.17 | 0.16 | 91 | 1015.5 |
| 20260906161536 | 73 | 113 | 1.0 | 3.0 | 0.16 | 0.17 | 0.16 | 90 | 1015.6 |
| 20260906161033 | 74 | 98 | 1.0 | 4.0 | 0.16 | 0.17 | 0.16 | 90 | 1015.5 |
| 20260906160533 | 74 | 121 | 1.0 | 4.0 | 0.16 | 0.17 | 0.16 | 91 | 1015.6 |
| 20260906160034 | 74 | 133 | 1.0 | 2.0 | 0.16 | 0.17 | 0.16 | 91 | 1015.5 |
| 20260906155532 | 74 | 61 | 1.0 | 4.0 | 0.16 | 0.17 | 0.16 | 89 | 1015.5 |
| 20260906155032 | 74 | 57 | 2.0 | 7.0 | 0.16 | 0.17 | 0.16 | 88 | 1015.6 |
| 20260906154527 | 75 | 63 | 2.0 | 9.0 | 0.16 | 0.17 | 0.16 | 87 | 1015.6 |
| 20260906154339 | 76 | 63 | 2.0 | 9.0 | 0.16 | 0.17 | 0.16 | 87 | 1015.9 |
| 20260906153511 | 77 | 64 | 3.0 | 9.0 | 0.15 | 0.16 | 0.15 | 87 | 1016.0 |
| 20260906153321 | 78 | 0 | 3.0 | 11.0 | 0.09 | 0.10 | 0.08 | 85 | 1016.0 |
| 20260906152838 | 78 | 157 | 2.0 | 11.0 | 0.00 | 0.01 | 0.00 | 83 | 1016.1 |
| 20260906152008 | 78 | 152 | 1.0 | 6.0 | 0.00 | 0.01 | 0.00 | 83 | 1016.0 |
| 20260906151513 | 78 | 233 | 1.0 | 5.0 | 0.00 | 0.01 | 0.00 | 84 | 1016.0 |
| 20260906151016 | 78 | 227 | 1.0 | 3.0 | 0.00 | 0.01 | 0.00 | 84 | 1015.7 |
| 20260906150513 | 78 | 43 | 1.0 | 3.0 | 0.00 | 0.01 | 0.00 | 84 | 1015.3 |
| 20260906150014 | 78 | 71 | 1.0 | 3.0 | 0.00 | 0.01 | 0.00 | 84 | 1015.3 |
| 20260906145511 | 78 | 96 | 1.0 | 2.0 | 0.00 | 0.01 | 0.00 | 86 | 1015.2 |
| 20260906145009 | 77 | 88 | 1.0 | 2.0 | 0.00 | 0.01 | 0.00 | 86 | 1015.2 |
| 20260906144509 | 77 | 38 | 1.0 | 3.0 | 0.00 | 0.01 | 0.00 | 86 | 1015.2 |
| 20260906144010 | 77 | 25 | 1.0 | 3.0 | 0.00 | 0.01 | 0.00 | 87 | 1015.3 |
| 20260906143505 | 77 | 132 | 1.0 | 2.0 | 0.00 | 0.01 | 0.00 | 87 | 1015.1 |
| 20260906143007 | 76 | 138 | 1.0 | 3.0 | 0.00 | 0.01 | 0.00 | 88 | 1015.1 |
| 20260906142507 | 76 | 59 | 1.0 | 3.0 | 0.00 | 0.01 | 0.00 | 88 | 1015.0 |
| 20260906142348 | 76 | 128 | 1.0 | 2.0 | 0.00 | 0.01 | 0.00 | 88 | 1014.9 |
| 20260906141506 | 76 | 128 | 1.0 | 2.0 | 0.00 | 0.01 | 0.00 | 88 | 1014.9 |
| 20260906141010 | 76 | 98 | 0.0 | 2.0 | 0.00 | 0.01 | 0.00 | 88 | 1015.0 |
| 20260906140507 | 76 | 62 | 1.0 | 2.0 | 0.00 | 0.01 | 0.00 | 89 | 1014.9 |
| 20260906140008 | 76 | 62 | 1.0 | 2.0 | 0.00 | 0.01 | 0.00 | 89 | 1014.9 |
| 20260906135507 | 75 | 108 | 1.0 | 3.0 | 0.00 | 0.01 | 0.00 | 89 | 1014.9 |
| 20260906135351 | 75 | 138 | 1.0 | 3.0 | 0.00 | 0.01 | 0.00 | 90 | 1014.8 |
| 20260906134510 | 75 | 138 | 1.0 | 3.0 | 0.00 | 0.01 | 0.00 | 90 | 1014.9 |
| 20260906134111 | 74 | 107 | 1.0 | 3.0 | 0.00 | 0.01 | 0.00 | 92 | 1014.9 |
| 20260906134050 | 74 | 150 | 1.0 | 3.0 | 0.00 | 0.01 | 0.00 | 92 | 1015.0 |
| 20260906133013 | 74 | 64 | 1.0 | 3.0 | 0.00 | 0.01 | 0.00 | 92 | 1014.8 |
| 20260906132509 | 74 | 30 | 1.0 | 2.0 | 0.00 | 0.01 | 0.00 | 93 | 1014.8 |
| 20260906132006 | 73 | 70 | 1.0 | 3.0 | 0.00 | 0.01 | 0.00 | 93 | 1014.8 |
| 20260906131507 | 73 | 47 | 1.0 | 3.0 | 0.00 | 0.01 | 0.00 | 94 | 1014.7 |
| 20260906131005 | 73 | 107 | 1.0 | 3.0 | 0.00 | 0.01 | 0.00 | 94 | 1014.7 |
| 20260906130507 | 73 | 32 | 1.0 | 3.0 | 0.00 | 0.01 | 0.00 | 94 | 1014.6 |
| 20260906130007 | 72 | 48 | 1.0 | 2.0 | 0.00 | 0.01 | 0.00 | 94 | 1014.7 |
| 20260906125505 | 72 | 48 | 0.0 | 2.0 | 0.00 | 0.01 | 0.00 | 94 | 1014.7 |
| 20260906125005 | 72 | 48 | 1.0 | 3.0 | 0.00 | 0.01 | 0.00 | 94 | 1014.7 |
| 20260906124506 | 72 | 48 | 1.0 | 3.0 | 0.00 | 0.01 | 0.00 | 93 | 1014.8 |
| 20260906124007 | 72 | 52 | 2.0 | 4.0 | 0.00 | 0.01 | 0.00 | 93 | 1014.8 |
| 20260906123839 | 72 | 49 | 1.0 | 4.0 | 0.00 | 0.01 | 0.00 | 93 | 1014.6 |
| 20260906123649 | 72 | 49 | 2.0 | 4.0 | 0.00 | 0.01 | 0.00 | 93 | 1014.7 |
| 20260906122503 | 72 | 68 | 1.0 | 2.0 | 0.00 | 0.01 | 0.00 | 93 | 1014.3 |
| 20260906122006 | 72 | 55 | 1.0 | 2.0 | 0.00 | 0.01 | 0.00 | 93 | 1014.2 |
| 20260906121508 | 72 | 63 | 1.0 | 4.0 | 0.00 | 0.01 | 0.00 | 93 | 1014.2 |
| 20260906121005 | 72 | 46 | 1.0 | 4.0 | 0.00 | 0.01 | 0.00 | 93 | 1013.9 |
| 20260906120501 | 71 | 58 | 1.0 | 3.0 | 0.00 | 0.01 | 0.00 | 93 | 1013.8 |
| 20260906120001 | 71 | 74 | 1.0 | 3.0 | 0.00 | 0.01 | 0.00 | 93 | 1013.8 |
| 20260906115501 | 71 | 57 | 1.0 | 2.0 | 0.00 | 0.01 | 0.00 | 93 | 1013.7 |
| 20260906115004 | 71 | 38 | 1.0 | 2.0 | 0.00 | 0.01 | 0.00 | 93 | 1013.7 |
| 20260906114503 | 71 | 38 | 1.0 | 2.0 | 0.00 | 0.01 | 0.00 | 93 | 1013.7 |
| 20260906114007 | 71 | 18 | 1.0 | 2.0 | 0.00 | 0.01 | 0.00 | 93 | 1013.8 |
| 20260906113501 | 71 | 18 | 1.0 | 2.0 | 0.00 | 0.01 | 0.00 | 93 | 1013.6 |
| 20260906113004 | 71 | 18 | 0.0 | 2.0 | 0.00 | 0.01 | 0.00 | 93 | 1013.6 |
| 20260906112506 | 71 | 18 | 0.0 | 2.0 | 0.00 | 0.01 | 0.00 | 93 | 1013.6 |
| 20260906112351 | 71 | 18 | 0.0 | 2.0 | 0.00 | 0.01 | 0.00 | 93 | 1013.6 |
| 20260906111507 | 71 | 355 | 0.0 | 2.0 | 0.00 | 0.01 | 0.00 | 93 | 1013.6 |
| 20260906111002 | 71 | 355 | 0.0 | 1.0 | 0.00 | 0.01 | 0.00 | 93 | 1013.6 |
| 20260906110501 | 71 | 355 | 0.0 | 0.0 | 0.00 | 0.01 | 0.00 | 93 | 1013.5 |
| 20260906110001 | 71 | 355 | 0.0 | 0.0 | 0.00 | 0.01 | 0.00 | 93 | 1013.4 |
| 20260906105502 | 71 | 355 | 0.0 | 0.0 | 0.00 | 0.01 | 0.00 | 93 | 1013.5 |
| 20260906105259 | 71 | 355 | 0.0 | 1.0 | 0.00 | 0.01 | 0.00 | 93 | 1013.4 |
| 20260906104803 | 71 | 355 | 0.0 | 1.0 | 0.00 | 0.01 | 0.00 | 94 | 1013.3 |
| 20260906104001 | 71 | 355 | 0.0 | 2.0 | 0.00 | 0.01 | 0.00 | 94 | 1013.2 |
| 20260906103803 | 71 | 355 | 0.0 | 2.0 | 0.00 | 0.01 | 0.00 | 93 | 1013.2 |
| 20260906103058 | 71 | 309 | 0.0 | 1.0 | 0.00 | 0.01 | 0.00 | 93 | 1013.0 |
| 20260906103034 | 71 | 309 | 0.0 | 1.0 | 0.00 | 0.01 | 0.00 | 93 | 1013.1 |
| 20260906102300 | 71 | 309 | 0.0 | 1.0 | 0.00 | 0.01 | 0.00 | 93 | 1013.1 |
| 20260906101453 | 71 | 309 | 0.0 | 0.0 | 0.00 | 0.01 | 0.00 | 93 | 1013.0 |
| 20260906100947 | 71 | 309 | 0.0 | 0.0 | 0.00 | 0.01 | 0.00 | 93 | 1012.9 |
| 20260906100450 | 71 | 309 | 0.0 | 2.0 | 0.00 | 0.01 | 0.00 | 93 | 1012.8 |
| 20260906095944 | 71 | 309 | 0.0 | 2.0 | 0.00 | 0.01 | 0.00 | 93 | 1012.9 |
| 20260906095444 | 71 | 309 | 0.0 | 1.0 | 0.00 | 0.01 | 0.00 | 93 | 1012.8 |
| 20260906094946 | 71 | 309 | 0.0 | 0.0 | 0.00 | 0.01 | 0.00 | 93 | 1012.8 |
| 20260906094443 | 71 | 309 | 0.0 | 0.0 | 0.00 | 0.01 | 0.00 | 93 | 1012.8 |
| 20260906093940 | 71 | 309 | 0.0 | 1.0 | 0.00 | 0.01 | 0.00 | 93 | 1012.7 |
| 20260906093438 | 71 | 309 | 0.0 | 1.0 | 0.00 | 0.01 | 0.00 | 93 | 1012.5 |
| 20260906092941 | 71 | 309 | 0.0 | 0.0 | 0.00 | 0.01 | 0.00 | 93 | 1012.6 |
| 20260906092437 | 71 | 309 | 0.0 | 1.0 | 0.00 | 0.01 | 0.00 | 93 | 1012.5 |
| 20260906091937 | 71 | 309 | 0.0 | 1.0 | 0.00 | 0.01 | 0.00 | 93 | 1012.5 |
| 20260906091435 | 71 | 309 | 0.0 | 1.0 | 0.00 | 0.01 | 0.00 | 93 | 1012.5 |
| 20260906090936 | 71 | 309 | 0.0 | 0.0 | 0.00 | 0.01 | 0.00 | 92 | 1012.6 |
| 20260906090435 | 71 | 309 | 0.0 | 1.0 | 0.00 | 0.01 | 0.00 | 92 | 1012.5 |
| 20260906090027 | 72 | 309 | 0.0 | 0.0 | 0.00 | 0.01 | 0.00 | 92 | 1012.4 |
| 20260906090005 | 71 | 309 | 0.0 | 1.0 | 0.00 | 0.01 | 0.00 | 92 | 1012.5 |
| 20260906084931 | 72 | 309 | 0.0 | 0.0 | 0.00 | 0.01 | 0.00 | 92 | 1012.4 |
| 20260906084430 | 72 | 309 | 0.0 | 0.0 | 0.00 | 0.01 | 0.00 | 92 | 1012.4 |
| 20260906083929 | 72 | 309 | 0.0 | 0.0 | 0.00 | 0.01 | 0.00 | 92 | 1012.5 |
| 20260906083431 | 72 | 309 | 0.0 | 0.0 | 0.00 | 0.01 | 0.00 | 92 | 1012.5 |
| 20260906082932 | 72 | 309 | 0.0 | 1.0 | 0.00 | 0.01 | 0.00 | 92 | 1012.4 |
| 20260906082426 | 72 | 309 | 0.0 | 1.0 | 0.00 | 0.01 | 0.00 | 92 | 1012.4 |
| 20260906081923 | 72 | 309 | 0.0 | 1.0 | 0.00 | 0.01 | 0.00 | 92 | 1012.4 |
| 20260906081420 | 72 | 309 | 0.0 | 1.0 | 0.00 | 0.01 | 0.00 | 92 | 1012.2 |
| 20260906080917 | 72 | 309 | 0.0 | 0.0 | 0.00 | 0.01 | 0.00 | 92 | 1012.1 |
| 20260906080710 | 72 | 309 | 0.0 | 1.0 | 0.00 | 0.01 | 0.00 | 92 | 1012.1 |
| 20260906075914 | 72 | 309 | 0.0 | 1.0 | 0.00 | 0.01 | 0.00 | 91 | 1011.9 |
| 20260906075415 | 72 | 309 | 0.0 | 0.0 | 0.00 | 0.01 | 0.00 | 91 | 1011.9 |
| 20260906075211 | 73 | 309 | 0.0 | 0.0 | 0.00 | 0.01 | 0.00 | 91 | 1011.8 |
| 20260906074706 | 73 | 309 | 0.0 | 0.0 | 0.00 | 0.01 | 0.00 | 91 | 1011.8 |
| 20260906073909 | 73 | 309 | 0.0 | 0.0 | 0.00 | 0.01 | 0.00 | 91 | 1011.7 |
| 20260906073410 | 73 | 309 | 0.0 | 0.0 | 0.00 | 0.01 | 0.00 | 91 | 1011.7 |
| 20260906072908 | 73 | 309 | 0.0 | 0.0 | 0.00 | 0.01 | 0.00 | 91 | 1011.7 |
| 20260906072406 | 73 | 309 | 0.0 | 0.0 | 0.00 | 0.01 | 0.00 | 91 | 1011.7 |
| 20260906071904 | 73 | 309 | 0.0 | 0.0 | 0.00 | 0.01 | 0.00 | 91 | 1011.9 |
| 20260906071404 | 73 | 309 | 0.0 | 1.0 | 0.00 | 0.01 | 0.00 | 91 | 1011.9 |
| 20260906070904 | 73 | 309 | 0.0 | 2.0 | 0.00 | 0.01 | 0.00 | 91 | 1011.9 |
| 20260906070708 | 73 | 292 | 0.0 | 2.0 | 0.00 | 0.01 | 0.00 | 91 | 1012.1 |
| 20260906065905 | 73 | 248 | 0.0 | 1.0 | 0.00 | 0.01 | 0.00 | 91 | 1012.2 |
| 20260906065401 | 73 | 273 | 0.0 | 1.0 | 0.00 | 0.01 | 0.00 | 90 | 1012.4 |
| 20260906064901 | 73 | 273 | 0.0 | 2.0 | 0.00 | 0.01 | 0.00 | 90 | 1012.2 |
| 20260906064407 | 73 | 273 | 0.0 | 2.0 | 0.00 | 0.01 | 0.00 | 90 | 1012.2 |
| 20260906063903 | 73 | 315 | 0.0 | 1.0 | 0.00 | 0.01 | 0.00 | 90 | 1012.1 |
| 20260906063357 | 73 | 314 | 0.0 | 1.0 | 0.00 | 0.01 | 0.00 | 89 | 1012.2 |
| 20260906062852 | 73 | 309 | 0.0 | 1.0 | 0.00 | 0.01 | 0.00 | 89 | 1012.3 |
| 20260906062346 | 73 | 309 | 0.0 | 0.0 | 0.00 | 0.01 | 0.00 | 89 | 1012.5 |
| 20260906061845 | 73 | 309 | 0.0 | 0.0 | 0.00 | 0.01 | 0.00 | 89 | 1012.6 |
| 20260906061342 | 73 | 309 | 0.0 | 0.0 | 0.00 | 0.01 | 0.00 | 89 | 1012.6 |
| 20260906060843 | 74 | 309 | 0.0 | 0.0 | 0.00 | 0.01 | 0.00 | 89 | 1012.7 |
| 20260906060339 | 74 | 309 | 0.0 | 0.0 | 0.00 | 0.01 | 0.00 | 89 | 1012.6 |
| 20260906055841 | 74 | 309 | 0.0 | 1.0 | 0.00 | 0.01 | 0.00 | 89 | 1012.6 |
| 20260906055341 | 74 | 309 | 0.0 | 1.0 | 0.00 | 0.01 | 0.00 | 89 | 1012.7 |
| 20260906054839 | 74 | 309 | 0.0 | 1.0 | 0.00 | 0.01 | 0.00 | 89 | 1012.7 |
| 20260906054631 | 74 | 309 | 0.0 | 1.0 | 0.00 | 0.01 | 0.00 | 89 | 1012.8 |
| 20260906054127 | 74 | 309 | 0.0 | 1.0 | 0.00 | 0.01 | 0.00 | 89 | 1012.8 |
| 20260906053727 | 74 | 309 | 0.0 | 1.0 | 0.00 | 0.01 | 0.00 | 88 | 1013.0 |
| 20260906053723 | 74 | 309 | 0.0 | 1.0 | 0.00 | 0.01 | 0.00 | 88 | 1012.9 |
| 20260906052341 | 74 | 309 | 0.0 | 1.0 | 0.00 | 0.01 | 0.00 | 88 | 1013.0 |
| 20260906051838 | 74 | 271 | 0.0 | 1.0 | 0.00 | 0.01 | 0.00 | 88 | 1013.0 |
| 20260906051339 | 74 | 265 | 0.0 | 1.0 | 0.00 | 0.01 | 0.00 | 88 | 1013.0 |
| 20260906050837 | 74 | 262 | 0.0 | 2.0 | 0.00 | 0.01 | 0.00 | 88 | 1013.1 |
| 20260906050622 | 74 | 262 | 0.0 | 2.0 | 0.00 | 0.01 | 0.00 | 87 | 1013.1 |
| 20260906045837 | 74 | 255 | 0.0 | 2.0 | 0.00 | 0.01 | 0.00 | 87 | 1013.2 |
| 20260906045337 | 74 | 296 | 0.0 | 2.0 | 0.00 | 0.01 | 0.00 | 87 | 1013.3 |
| 20260906045125 | 74 | 355 | 0.0 | 1.0 | 0.00 | 0.01 | 0.00 | 87 | 1013.3 |
| 20260906044337 | 74 | 355 | 0.0 | 0.0 | 0.00 | 0.01 | 0.00 | 87 | 1013.3 |
| 20260906043832 | 74 | 355 | 0.0 | 1.0 | 0.00 | 0.01 | 0.00 | 87 | 1013.4 |
| 20260906043332 | 74 | 355 | 0.0 | 1.0 | 0.00 | 0.01 | 0.00 | 87 | 1013.5 |
| 20260906042829 | 74 | 355 | 0.0 | 1.0 | 0.00 | 0.01 | 0.00 | 86 | 1013.5 |
| 20260906042329 | 74 | 355 | 0.0 | 1.0 | 0.00 | 0.01 | 0.00 | 86 | 1013.3 |
| 20260906041831 | 74 | 355 | 0.0 | 1.0 | 0.00 | 0.01 | 0.00 | 86 | 1013.4 |
| 20260906041330 | 74 | 355 | 0.0 | 1.0 | 0.00 | 0.01 | 0.00 | 86 | 1013.5 |
| 20260906040830 | 74 | 355 | 0.0 | 1.0 | 0.00 | 0.01 | 0.00 | 85 | 1013.6 |
| 20260906040329 | 74 | 355 | 0.0 | 1.0 | 0.00 | 0.01 | 0.00 | 85 | 1013.6 |
| 20260906035831 | 74 | 355 | 0.0 | 1.0 | 0.00 | 0.01 | 0.01 | 85 | 1013.5 |
| 20260906035331 | 74 | 355 | 0.0 | 1.0 | 0.00 | 0.01 | 0.01 | 85 | 1013.5 |
| 20260906034825 | 74 | 355 | 0.0 | 1.0 | 0.00 | 0.01 | 0.01 | 85 | 1013.5 |
| 20260906034318 | 74 | 355 | 0.0 | 1.0 | 0.00 | 0.01 | 0.01 | 84 | 1013.6 |
| 20260906033813 | 74 | 355 | 0.0 | 1.0 | 0.00 | 0.01 | 0.01 | 84 | 1013.7 |
| 20260906033559 | 74 | 355 | 0.0 | 1.0 | 0.00 | 0.01 | 0.01 | 84 | 1013.7 |
| 20260906032816 | 74 | 355 | 0.0 | 1.0 | 0.00 | 0.01 | 0.01 | 84 | 1013.6 |
| 20260906032313 | 74 | 355 | 0.0 | 1.0 | 0.00 | 0.01 | 0.01 | 84 | 1013.5 |
| 20260906031813 | 74 | 355 | 0.0 | 1.0 | 0.00 | 0.01 | 0.01 | 84 | 1013.5 |
| 20260906031313 | 75 | 355 | 0.0 | 1.0 | 0.00 | 0.01 | 0.01 | 84 | 1013.6 |
| 20260906030810 | 75 | 355 | 0.0 | 0.0 | 0.00 | 0.01 | 0.01 | 84 | 1013.7 |
| 20260906030309 | 75 | 355 | 0.0 | 1.0 | 0.00 | 0.01 | 0.01 | 84 | 1013.6 |
| 20260906025810 | 75 | 355 | 0.0 | 1.0 | 0.00 | 0.01 | 0.01 | 84 | 1013.6 |
| 20260906025307 | 75 | 355 | 0.0 | 1.0 | 0.00 | 0.01 | 0.01 | 83 | 1013.5 |
| 20260906024808 | 75 | 355 | 0.0 | 1.0 | 0.00 | 0.01 | 0.01 | 83 | 1013.6 |
| 20260906024358 | 75 | 355 | 0.0 | 1.0 | 0.00 | 0.01 | 0.01 | 83 | 1013.4 |
| 20260906024344 | 75 | 355 | 0.0 | 0.0 | 0.00 | 0.01 | 0.01 | 83 | 1013.6 |
| 20260906023312 | 75 | 355 | 0.0 | 1.0 | 0.00 | 0.01 | 0.01 | 83 | 1013.4 |
| 20260906022806 | 75 | 355 | 0.0 | 1.0 | 0.00 | 0.01 | 0.01 | 83 | 1013.5 |
| 20260906022348 | 75 | 355 | 1.0 | 2.0 | 0.00 | 0.01 | 0.01 | 83 | 1013.4 |
| 20260906022337 | 75 | 355 | 0.0 | 2.0 | 0.00 | 0.01 | 0.01 | 83 | 1013.5 |
| 20260906021550 | 76 | 355 | 0.0 | 2.0 | 0.00 | 0.01 | 0.01 | 81 | 1013.3 |
| 20260906021057 | 76 | 355 | 0.0 | 1.0 | 0.00 | 0.01 | 0.01 | 80 | 1013.3 |
| 20260906020258 | 76 | 355 | 0.0 | 1.0 | 0.00 | 0.01 | 0.01 | 80 | 1013.2 |
| 20260906015755 | 76 | 355 | 0.0 | 2.0 | 0.00 | 0.01 | 0.01 | 80 | 1013.1 |
| 20260906015255 | 76 | 355 | 0.0 | 2.0 | 0.00 | 0.01 | 0.01 | 81 | 1013.1 |
| 20260906014754 | 77 | 355 | 0.0 | 1.0 | 0.00 | 0.01 | 0.01 | 81 | 1013.1 |
| 20260906014546 | 77 | 355 | 0.0 | 1.0 | 0.00 | 0.01 | 0.01 | 81 | 1013.3 |
| 20260906014043 | 77 | 355 | 0.0 | 0.0 | 0.00 | 0.01 | 0.01 | 81 | 1013.1 |
| 20260906013251 | 77 | 355 | 0.0 | 1.0 | 0.00 | 0.01 | 0.01 | 81 | 1013.1 |
| 20260906013038 | 77 | 355 | 0.0 | 1.0 | 0.00 | 0.01 | 0.01 | 80 | 1013.0 |
| 20260906012249 | 78 | 355 | 0.0 | 1.0 | 0.00 | 0.01 | 0.01 | 80 | 1012.8 |
| 20260906011750 | 78 | 355 | 0.0 | 1.0 | 0.00 | 0.01 | 0.01 | 79 | 1012.8 |
| 20260906011251 | 78 | 355 | 0.0 | 0.0 | 0.00 | 0.01 | 0.01 | 78 | 1012.7 |
| 20260906010751 | 78 | 355 | 0.0 | 0.0 | 0.00 | 0.01 | 0.01 | 78 | 1012.7 |
| 20260906010251 | 78 | 355 | 0.0 | 0.0 | 0.00 | 0.01 | 0.01 | 78 | 1012.7 |
| 20260906005748 | 79 | 355 | 0.0 | 0.0 | 0.00 | 0.01 | 0.01 | 77 | 1012.6 |
| 20260906005249 | 79 | 355 | 0.0 | 1.0 | 0.00 | 0.01 | 0.01 | 76 | 1012.7 |
| 20260906004747 | 79 | 355 | 0.0 | 1.0 | 0.00 | 0.01 | 0.01 | 76 | 1012.7 |
| 20260906004546 | 79 | 355 | 0.0 | 1.0 | 0.00 | 0.01 | 0.01 | 75 | 1012.7 |
| 20260906004043 | 80 | 355 | 0.0 | 1.0 | 0.00 | 0.01 | 0.01 | 75 | 1012.6 |
| 20260906003246 | 80 | 355 | 0.0 | 1.0 | 0.00 | 0.01 | 0.01 | 74 | 1012.6 |
| 20260906002747 | 80 | 355 | 0.0 | 1.0 | 0.00 | 0.01 | 0.01 | 74 | 1012.7 |
| 20260906002339 | 81 | 355 | 0.0 | 1.0 | 0.00 | 0.01 | 0.01 | 72 | 1012.6 |
| 20260906002325 | 81 | 355 | 0.0 | 1.0 | 0.00 | 0.01 | 0.01 | 73 | 1012.7 |
| 20260906001341 | 82 | 355 | 0.0 | 0.0 | 0.00 | 0.01 | 0.01 | 71 | 1012.5 |
| 20260906001327 | 81 | 355 | 0.0 | 0.0 | 0.00 | 0.01 | 0.01 | 72 | 1012.6 |
| 20260906000245 | 82 | 355 | 0.0 | 0.0 | 0.00 | 0.01 | 0.01 | 70 | 1012.5 |
| 20260905235747 | 82 | 355 | 0.0 | 1.0 | 0.00 | 0.01 | 0.01 | 70 | 1012.4 |
| 20260905235246 | 82 | 355 | 0.0 | 1.0 | 0.00 | 0.01 | 0.01 | 69 | 1012.4 |
| 20260905234745 | 83 | 355 | 0.0 | 1.0 | 0.00 | 0.01 | 0.01 | 69 | 1012.2 |
| 20260905234245 | 83 | 355 | 0.0 | 0.0 | 0.00 | 0.01 | 0.01 | 68 | 1012.2 |
| 20260905234046 | 83 | 355 | 0.0 | 2.0 | 0.00 | 0.01 | 0.01 | 68 | 1012.2 |
| 20260905233245 | 83 | 355 | 0.0 | 2.0 | 0.00 | 0.01 | 0.01 | 68 | 1012.0 |
| 20260905232746 | 83 | 273 | 0.0 | 2.0 | 0.00 | 0.01 | 0.01 | 67 | 1012.1 |
| 20260905232246 | 84 | 5 | 0.0 | 2.0 | 0.00 | 0.01 | 0.01 | 66 | 1012.1 |
| 20260905231747 | 84 | 5 | 0.0 | 2.0 | 0.00 | 0.01 | 0.01 | 65 | 1012.1 |
| 20260905231245 | 84 | 5 | 0.0 | 2.0 | 0.00 | 0.01 | 0.01 | 65 | 1012.0 |
| 20260905230745 | 84 | 5 | 1.0 | 2.0 | 0.00 | 0.01 | 0.01 | 64 | 1012.0 |
| 20260905230246 | 84 | 215 | 1.0 | 2.0 | 0.00 | 0.01 | 0.01 | 64 | 1012.0 |
| 20260905225747 | 85 | 311 | 1.0 | 5.0 | 0.00 | 0.01 | 0.01 | 64 | 1012.0 |
| 20260905225245 | 85 | 209 | 1.0 | 5.0 | 0.00 | 0.01 | 0.01 | 64 | 1012.0 |
| 20260905224746 | 85 | 296 | 1.0 | 4.0 | 0.00 | 0.01 | 0.01 | 63 | 1012.1 |
| 20260905224245 | 85 | 232 | 1.0 | 4.0 | 0.00 | 0.01 | 0.01 | 64 | 1012.0 |
| 20260905223743 | 84 | 340 | 1.0 | 3.0 | 0.00 | 0.01 | 0.01 | 65 | 1011.9 |
| 20260905223242 | 84 | 14 | 1.0 | 3.0 | 0.00 | 0.01 | 0.01 | 65 | 1011.9 |
| 20260905222742 | 84 | 201 | 1.0 | 7.0 | 0.00 | 0.01 | 0.01 | 65 | 1011.8 |
| 20260905222547 | 83 | 211 | 1.0 | 7.0 | 0.00 | 0.01 | 0.01 | 66 | 1011.7 |
| 20260905222034 | 83 | 246 | 1.0 | 8.0 | 0.00 | 0.01 | 0.01 | 67 | 1011.7 |